Weather History for Pensacola NAS, FL

Change the Weather History Date:

Saturday, December 15, 2012

  Actual Average Record
Temperature  
Mean Temperature 59 °F -  
Max Temperature 68 °F 61 °F 73 °F (2001)
Min Temperature 50 °F 42 °F 28 °F (2003)
Degree Days  
Heating Degree Days 6    
Growing Degree Days 9 (Base 50)    
Moisture  
Dew Point 58 °F    
Average Humidity 89    
Maximum Humidity 97    
Minimum Humidity 80    
Precipitation  
Precipitation 0.00 in - - ()
Sea Level Pressure  
Sea Level Pressure 30.08 in    
Wind  
Wind Speed 7 mph (East)    
Max Wind Speed 12 mph    
Max Gust Speed 20 mph    
Visibility 10 miles    
Events      
Averages and records for this station are not official NWS values.
T = Trace of Precipitation, MM = Missing Value Source: NWS Daily Summary

Daily Weather History Graph

Daily Weather History Graph

Search for Another Location

Airport:

Trip Planner

Search our weather history database for the weather conditions in past years. The results will help you decide how hot, cold, wet, or windy it might be!

Date:

Astronomy

Dec. 15, 2012 Rise Set
Actual Time 6:38 AM CST 4:50 PM CST
Civil Twilight 6:12 AM CST 5:17 PM CST
Nautical Twilight 5:42 AM CST 5:47 PM CST
Astronomical Twilight 5:12 AM CST 6:16 PM CST
Moon 8:38 AM CST (12/15) 7:45 PM CST (12/15)
Length of Visible Light 11h 04m
Length of Day
10h 11m
Waxing Crescent, 8% of the Moon is Illuminated
Dec 15
Waxing Crescent
Dec 19
First Quarter
Dec 28
Full
Jan 4
Last Quarter
Jan 11
New

Hourly Weather History & Observations

Time (CST) Temp. Dew Point Humidity Pressure Visibility Wind Dir Wind Speed Gust Speed Precip Events Conditions
12:56 AM 51.1 °F 48.9 °F 92% 30.14 in 10.0 mi NNE 4.6 mph - N/A   Overcast
1:56 AM 50.0 °F 48.9 °F 96% 30.13 in 10.0 mi NNE 4.6 mph - N/A   Mostly Cloudy
2:40 AM 50.0 °F 48.2 °F 94% 30.12 in 10.0 mi NE 4.6 mph - N/A   Overcast
2:56 AM 50.0 °F 48.0 °F 93% 30.13 in 10.0 mi NE 4.6 mph - N/A   Scattered Clouds
3:56 AM 51.1 °F 48.9 °F 92% 30.12 in 10.0 mi NNE 5.8 mph - N/A   Clear
4:56 AM 52.0 °F 50.0 °F 93% 30.09 in 10.0 mi ENE 8.1 mph - N/A   Clear
5:56 AM 51.1 °F 50.0 °F 96% 30.12 in 10.0 mi NNE 4.6 mph - N/A   Mostly Cloudy
6:56 AM 52.0 °F 51.1 °F 97% 30.13 in 10.0 mi NE 4.6 mph - N/A   Clear
7:56 AM 54.0 °F 52.0 °F 93% 30.14 in 10.0 mi NE 4.6 mph - N/A   Partly Cloudy
8:56 AM 55.9 °F 53.1 °F 90% 30.14 in 10.0 mi ENE 6.9 mph - N/A   Mostly Cloudy
9:54 AM 60.8 °F 55.4 °F 82% 30.14 in 10.0 mi East 8.1 mph - N/A   Mostly Cloudy
9:56 AM 61.0 °F 55.0 °F 81% 30.15 in 10.0 mi East 9.2 mph 19.6 mph N/A   Mostly Cloudy
10:29 AM 62.6 °F 57.2 °F 82% 30.14 in 10.0 mi East 9.2 mph - N/A   Overcast
10:56 AM 63.0 °F 57.0 °F 81% 30.14 in 10.0 mi ENE 9.2 mph - N/A   Overcast
11:56 AM 64.0 °F 57.9 °F 80% 30.10 in 10.0 mi East 10.4 mph - N/A   Overcast
12:56 PM 64.9 °F 60.1 °F 84% 30.08 in 10.0 mi ENE 9.2 mph - N/A   Overcast
1:56 PM 68.0 °F 62.1 °F 81% 30.06 in 10.0 mi East 10.4 mph - N/A   Overcast
2:56 PM 68.0 °F 62.1 °F 81% 30.06 in 10.0 mi East 9.2 mph - N/A   Overcast
3:56 PM 66.0 °F 62.1 °F 87% 30.05 in 10.0 mi East 8.1 mph - N/A   Overcast
4:44 PM 64.4 °F 62.6 °F 94% 30.03 in 10.0 mi ENE 3.5 mph - N/A   Overcast
4:56 PM 64.0 °F 61.0 °F 90% 30.04 in 10.0 mi Calm Calm - N/A   Overcast
5:30 PM 64.4 °F 62.6 °F 94% 30.03 in 10.0 mi SSE 6.9 mph - N/A   Overcast
5:49 PM 66.2 °F 62.6 °F 88% 30.03 in 10.0 mi SE 9.2 mph - N/A   Mostly Cloudy
5:56 PM 66.0 °F 63.0 °F 90% 30.04 in 10.0 mi SSE 10.4 mph - N/A   Scattered Clouds
6:56 PM 66.9 °F 63.0 °F 87% 30.04 in 10.0 mi SSE 11.5 mph - N/A   Overcast
7:39 PM 66.2 °F 64.4 °F 94% 30.03 in 10.0 mi SSE 9.2 mph - N/A   Overcast
7:56 PM 66.9 °F 64.0 °F 90% 30.04 in 10.0 mi South 8.1 mph - N/A   Overcast
8:13 PM 66.2 °F 62.6 °F 88% 30.05 in 10.0 mi South 11.5 mph - N/A   Mostly Cloudy
8:56 PM 66.0 °F 63.0 °F 90% 30.05 in 10.0 mi South 11.5 mph - N/A   Mostly Cloudy
9:56 PM 66.0 °F 63.0 °F 90% 30.04 in 10.0 mi South 10.4 mph - N/A   Clear
10:56 PM 66.0 °F 64.0 °F 93% 30.04 in 10.0 mi South 5.8 mph - N/A   Partly Cloudy
11:56 PM 66.0 °F 64.0 °F 93% 30.03 in 10.0 mi South 8.1 mph - N/A   Clear